Hohenkirchen-Siegertsbrunn, Germany

5:19 AM CET on February 23, 2017 (GMT +0100)
Munich

Weather History for EDDM - October, 2013

Change the Weather History Date:

Sunday, October 6, 2013

  Actual Average Record
Temperature  
Mean Temperature 55 °F -  
Max Temperature 60 °F 52 °F 75 °F (2012)
Min Temperature 50 °F 37 °F 37 °F (1997)
Degree Days  
Heating Degree Days 10    
Growing Degree Days 5 (Base 50)    
Moisture  
Dew Point 53 °F    
Average Humidity 92    
Maximum Humidity 100    
Minimum Humidity 72    
Precipitation  
Precipitation 0.00 in - - ()
Sea Level Pressure  
Sea Level Pressure 30.19 in    
Wind  
Wind Speed 4 mph ()    
Max Wind Speed 8 mph    
Max Gust Speed -    
Visibility 5.1 miles    
Events Fog    
Averages and records for this station are not official NWS values.
T = Trace of Precipitation, MM = Missing Value Source: Averaged Metar Reports

Daily Weather History Graph

Daily Weather History Graph

Search for Another Location

Airport or City:

Trip Planner

Search our weather history database for the weather conditions in past years. The results will help you decide how hot, cold, wet, or windy it might be!

Date:

Astronomy

Oct. 06, 2013 Rise Set
Actual Time 7:19 AM CEST 6:42 PM CEST
Civil Twilight 6:48 AM CEST 7:13 PM CEST
Nautical Twilight 6:12 AM CEST 7:49 PM CEST
Astronomical Twilight 5:35 AM CEST 8:25 PM CEST
Moon 8:54 AM CEST (10/6) 7:18 PM CEST (10/6)
Length of Visible Light 12h 24m
Length of Day
11h 22m
New Moon, 2% of the Moon is Illuminated
Oct 6
New Moon
Oct 12
First Quarter
Oct 19
Full
Oct 27
Last Quarter
Nov 3
New

Hourly Weather History & Observations

Time (CEST) Temp. Dew Point Humidity Pressure Visibility Wind Dir Wind Speed Gust Speed Precip Events Conditions
12:20 AM 50.0 °F 50.0 °F 100% 30.09 in 6.2 mi South 3.5 mph - N/A   Mostly Cloudy
12:50 AM 50.0 °F 50.0 °F 100% 30.09 in 6.2 mi SSW 3.5 mph - N/A Fog Shallow Fog
1:20 AM 53.6 °F 53.6 °F 100% 30.09 in 6.2 mi WSW 5.8 mph - N/A   Overcast
1:50 AM 55.4 °F 55.4 °F 100% 30.09 in 6.2 mi WSW 8.1 mph - N/A   Overcast
2:20 AM 55.4 °F 53.6 °F 94% 30.12 in 6.2 mi WSW 8.1 mph - N/A   Overcast
2:50 AM 55.4 °F 53.6 °F 94% 30.12 in 6.2 mi WSW 6.9 mph - N/A   Overcast
3:20 AM 55.4 °F 53.6 °F 94% 30.12 in 6.2 mi West 6.9 mph - N/A   Overcast
3:50 AM 55.4 °F 53.6 °F 94% 30.12 in 6.2 mi WSW 8.1 mph - N/A   Overcast
4:20 AM 55.4 °F 53.6 °F 94% 30.12 in 6.2 mi West 6.9 mph - N/A   Overcast
4:50 AM 55.4 °F 53.6 °F 94% 30.12 in 6.2 mi NNW 4.6 mph - N/A   Mostly Cloudy
5:20 AM 53.6 °F 51.8 °F 94% 30.15 in 5.0 mi North 3.5 mph - N/A   Mostly Cloudy
5:50 AM 53.6 °F 51.8 °F 94% 30.15 in 3.7 mi North 3.5 mph - N/A   Mostly Cloudy
6:20 AM 53.6 °F 51.8 °F 94% 30.15 in 3.7 mi North 2.3 mph - N/A   Mostly Cloudy
6:50 AM 53.6 °F 51.8 °F 94% 30.15 in 3.7 mi NE 1.2 mph - N/A   Mostly Cloudy
7:20 AM 53.6 °F 53.6 °F 100% 30.15 in 1.6 mi North 3.5 mph - N/A   Light Drizzle
7:50 AM 53.6 °F 53.6 °F 100% 30.15 in 1.6 mi North 2.3 mph - N/A   Light Drizzle
8:20 AM 53.6 °F 53.6 °F 100% 30.18 in 1.4 mi NNE 3.5 mph - N/A   Light Drizzle
8:50 AM 53.6 °F 53.6 °F 100% 30.18 in 1.9 mi NE 3.5 mph - N/A   Mostly Cloudy
9:20 AM 53.6 °F 53.6 °F 100% 30.18 in 1.9 mi ENE 3.5 mph - N/A   Mostly Cloudy
9:50 AM 53.6 °F 53.6 °F 100% 30.21 in 1.9 mi ENE 3.5 mph - N/A   Light Drizzle
10:20 AM 53.6 °F 53.6 °F 100% 30.21 in 1.6 mi ENE 3.5 mph - N/A   Light Drizzle
10:50 AM 53.6 °F 53.6 °F 100% 30.21 in 1.2 mi ENE 3.5 mph - N/A   Light Drizzle
11:20 AM 53.6 °F 53.6 °F 100% 30.21 in 1.6 mi ENE 3.5 mph - N/A   Light Drizzle
11:50 AM 55.4 °F 55.4 °F 100% 30.21 in 2.8 mi East 3.5 mph - N/A   Light Drizzle
12:20 PM 55.4 °F 55.4 °F 100% 30.24 in 5.6 mi East 3.5 mph - N/A   Mostly Cloudy
12:50 PM 57.2 °F 53.6 °F 88% 30.21 in 6.2 mi ESE 2.3 mph - N/A   Mostly Cloudy
1:20 PM 57.2 °F 53.6 °F 88% 30.21 in 6.2 mi NW 4.6 mph - N/A   Mostly Cloudy
1:50 PM 57.2 °F 53.6 °F 88% 30.21 in 6.2 mi NNW 5.8 mph - N/A   Mostly Cloudy
2:20 PM 59.0 °F 53.6 °F 82% 30.21 in 6.2 mi North 4.6 mph - N/A   Mostly Cloudy
2:50 PM 59.0 °F 53.6 °F 82% 30.21 in 6.2 mi Variable 2.3 mph - N/A   Mostly Cloudy
3:20 PM 59.0 °F 53.6 °F 82% 30.21 in 6.2 mi NNE 3.5 mph - N/A   Mostly Cloudy
3:50 PM 60.8 °F 51.8 °F 72% 30.21 in 6.2 mi Variable 3.5 mph - N/A   Scattered Clouds
4:20 PM 60.8 °F 53.6 °F 77% 30.21 in 6.2 mi NE 4.6 mph - N/A   Scattered Clouds
4:50 PM 60.8 °F 51.8 °F 72% 30.21 in 6.2 mi North 4.6 mph - N/A   Scattered Clouds
5:20 PM 60.8 °F 51.8 °F 72% 30.21 in 6.2 mi NE 3.5 mph - N/A   Scattered Clouds
5:50 PM 60.8 °F 51.8 °F 72% 30.21 in 6.2 mi NE 4.6 mph - N/A   Scattered Clouds
6:20 PM 59.0 °F 51.8 °F 77% 30.24 in 6.2 mi NNE 4.6 mph - N/A   Scattered Clouds
6:50 PM 55.4 °F 51.8 °F 88% 30.24 in 6.2 mi NE 5.8 mph - N/A   Mostly Cloudy
7:20 PM 53.6 °F 51.8 °F 94% 30.24 in 6.2 mi North 5.8 mph - N/A   Mostly Cloudy
7:50 PM 53.6 °F 51.8 °F 94% 30.24 in 6.2 mi North 4.6 mph - N/A   Mostly Cloudy
8:20 PM 51.8 °F 50.0 °F 94% 30.27 in 6.2 mi NNE 5.8 mph - N/A   Mostly Cloudy
8:50 PM 53.6 °F 51.8 °F 94% 30.27 in 6.2 mi Variable 8.1 mph - N/A   Mostly Cloudy
9:20 PM 53.6 °F 51.8 °F 94% 30.27 in 6.2 mi NNE 5.8 mph - N/A   Mostly Cloudy
9:50 PM 53.6 °F 51.8 °F 94% 30.27 in 6.2 mi NNE 2.3 mph - N/A   Mostly Cloudy
10:20 PM 53.6 °F 51.8 °F 94% 30.27 in 6.2 mi NNE 4.6 mph - N/A   Mostly Cloudy
10:50 PM 53.6 °F 51.8 °F 94% 30.27 in 6.2 mi North 3.5 mph - N/A   Mostly Cloudy
11:20 PM 53.6 °F 51.8 °F 94% 30.27 in 6.2 mi NNW 3.5 mph - N/A   Mostly Cloudy
11:50 PM 53.6 °F 50.0 °F 88% 30.27 in 6.2 mi NNE 2.3 mph - N/A   Overcast